Regional Weather Roundup
Issued by NWS Jackson, KY

Home | Current Version | Previous Version | Graphics & Text | Print | Product List | Glossary On
Versions: 1 2 3 4 5 6 7 8 9 10 11 12 13 14 15 16 17 18 19 20 21 22 23 24 25 26 27 28
000
ASUS43 KJKL 182310
RWRJKL

EAST KENTUCKY HOURLY WEATHER ROUNDUP
NATIONAL WEATHER SERVICE JACKSON KY
600 PM EST SUN FEB 18 2018

NOTE: "FAIR" INDICATES FEW OR NO CLOUDS BELOW 12,000 FEET WITH
NO SIGNIFICANT WEATHER AND/OR OBSTRUCTIONS TO VISIBILITY.

* THESE REPORTS ARE NOT UNDER NWS QUALITY CONTROL AND MAY NOT
  REPORT WEATHER SUCH AS PRECIPITATION AND FOG.

KYZ079-080-083-085-087-088-110-112-115-119-120-190000
...EASTERN KENTUCKY...

CITY           SKY/WX    TMP DP  RH WIND       PRES   REMARKS
JACKSON          N/A     51  30  44 CALM      30.20F
LONDON           N/A     55  31  39 SE5       30.19S
SOMERSET*        N/A     54  32  43 CALM      30.20S
WILLIAMSBURG*    N/A     54  32  43 S6        30.20R
MIDDLESBORO*     N/A     55  36  48 CALM      30.22R
HARLAN APT*      N/A     52  28  40 CALM      30.21S
PIKE CO APT*     N/A     51  30  45 NE5       30.21F
BIG SANDY APT*   N/A     49  32  50 E3        30.22F
MOREHEAD APT*    N/A     48  28  46 E5        30.23F
ASHLAND*         N/A     47  31  53 E7        30.25F
$$

KYZ035-036-041-042-044-050-067-078-099-190000
...CENTRAL KENTUCKY...

CITY           SKY/WX    TMP DP  RH WIND       PRES   REMARKS
MT STERLING*     N/A     48  32  53 CALM      30.22F
FLEMING/MASON*   N/A     45  33  61 SE6       30.22F
DANVILLE*        N/A     48  32  53 CALM      30.21S
LEXINGTON        N/A     49  31  49 SE7       30.19F
FRANKFORT        N/A     49  30  48 SE7       30.18F
LOUISVILLE     CLOUDY    51  33  50 SE9       30.17F
LEBANON*         N/A     50  32  50 SE6       30.19R
GLASGOW*         N/A     53  32  44 SE3       30.17F
BOWLING GREEN    N/A     54  34  46 E5        30.15F
$$

KYZ091>093-OHZ055-061-077-WVZ005-015-034-035-042-190000
...SOUTHERN OHIO/WEST VIRGINIA...

CITY           SKY/WX    TMP DP  RH WIND       PRES   REMARKS
COVINGTON      CLOUDY    45  34  65 SE9       30.19F
COLUMBUS       MOCLDY    42  30  62 E9        30.26F
DAYTON         CLOUDY    41  33  73 SE14      30.21F
WILMINGTON       N/A     42  33  70 E7        30.21F
HUNTINGTON       N/A     47  30  51 E5        30.24F
CHARLESTON       N/A     46  31  55 NE6       30.25F
BECKLEY          N/A     45  26  47 SE6       30.24F
BLUEFIELD        N/A     47  22  37 VRB3      30.25F
LOGAN CO APT*    N/A     52  27  37 CALM      30.22F
$$

VAZ002-007-008-TNZ017-027-036-066-071-190000
...SOUTHWEST VIRGINIA/EAST TENNESSEE...

CITY           SKY/WX    TMP DP  RH WIND       PRES   REMARKS
WISE*            N/A     50  32  50 CALM      30.23S
JONESVILLE*      N/A     55  32  41 CALM      30.24S
ABINGDON*        N/A     56  35  43 CALM      30.23S
BRISTOL          N/A     56  38  50 CALM      30.22S
MORRISTOWN*    CLEAR     55  36  47 CALM      30.21S
SEVIERVILLE*   CLEAR     57  41  54 CALM      30.22R
KNOXVILLE      MOCLDY    56  38  50 NE5       30.19S
OAK RIDGE        N/A     57  38  48 CALM      30.22S
CROSSVILLE       N/A     54  33  45 S5        30.20R
NASHVILLE      MOCLDY    58  33  39 E7        30.15F
$$

...KEY TO REMARKS...
VSB - VISIBILITY IN MILES
WCI - WIND CHILL INDEX
HX  - HEAT INDEX

$$




USA.gov is the U.S. government's official web portal to all federal, state and local government web resources and services.